This demonstration page uses our WeatherBlox Daily Observations layout. Learn more.

Left ArrowRight Arrow

Hourly Observations for March 14, 2015

Temp ( °F °C ) Dew Point ( °F °C ) Humidity (%) Winds ( mph kmh ) Pressure ( in mb ) Visibility ( mi km ) Precip ( " mm )
12:15 am 00:15 Cloudy with Drizzle 43 6 39 4 87 87 S 5 7 30.33 1027 10 16 N/A
12:35 am 00:35 Cloudy 43 6 39 4 87 87 SSE 5 7 30.33 1027 10 16 N/A
12:55 am 00:55 Cloudy 43 6 39 4 87 87 S 3 6 30.33 1027 10 16 N/A
1:15 am 01:15 Cloudy with Drizzle 43 6 39 4 87 87 S 5 7 30.30 1026 10 16 N/A
1:35 am 01:35 Cloudy with Drizzle 43 6 39 4 87 87 S 6 9 30.30 1026 10 16 N/A
1:55 am 01:55 Cloudy with Light Rain 41 5 41 5 100 100 S 5 7 30.30 1026 4 6 0.02 0.51
2:15 am 02:15 Cloudy with Rain 41 5 41 5 100 100 S 3 6 30.30 1026 5 8 0.01 0.25
2:35 am 02:35 Cloudy with Light Rain 41 5 41 5 100 100 SSE 6 9 30.27 1025 3 5 0.03 0.76
2:55 am 02:55 Cloudy with Rain 41 5 41 5 100 100 SSE 7 11 30.27 1025 4 6 0.05 1.27
3:15 am 03:15 Cloudy with Rain 41 5 41 5 100 100 SSE 7 11 30.24 1024 7 11 N/A
3:35 am 03:35 Cloudy with Light Rain 41 5 41 5 100 100 SSE 7 11 30.24 1024 4 6 0.02 0.51
3:55 am 03:55 Cloudy with Light Rain 41 5 41 5 100 100 SSE 9 15 30.21 1023 7 11 0.03 0.76
4:15 am 04:15 Cloudy with Light Rain 41 5 41 5 100 100 S 8 13 30.21 1023 7 11 0.01 0.25
4:35 am 04:35 Cloudy with Light Rain 41 5 41 5 100 100 S 9 15 30.18 1022 7 11 0.01 0.25
4:55 am 04:55 Cloudy with Drizzle 41 5 41 5 100 100 S 10 17 30.18 1022 5 8 0.02 0.51
5:15 am 05:15 Cloudy with Heavy Rain 43 6 43 6 100 100 S 10 17 30.18 1022 5 8 0.04 1.02
5:35 am 05:35 Cloudy with Light Rain 43 6 43 6 100 100 S 10 17 30.18 1022 10 16 0.05 1.27
5:55 am 05:55 Cloudy with Rain 43 6 43 6 100 100 S 12 19 30.15 1021 5 8 0.08 2.03
6:15 am 06:15 Cloudy with Rain 43 6 43 6 100 100 S 8 13 30.15 1021 5 8 0.03 0.76
6:35 am 06:35 Cloudy with Rain 43 6 43 6 100 100 S 9 15 30.15 1021 4 6 0.07 1.78
6:55 am 06:55 Cloudy with Light Rain 43 6 43 6 100 100 S 8 13 30.12 1020 7 11 0.10 2.54
7:15 am 07:15 Cloudy with Rain 43 6 43 6 100 100 S 8 13 30.12 1020 10 16 0.01 0.25
7:35 am 07:35 Cloudy with Light Rain 43 6 43 6 100 100 S 8 13 30.12 1020 7 11 0.03 0.76
7:55 am 07:55 Cloudy with Light Rain 43 6 43 6 100 100 S 7 11 30.09 1019 10 16 0.04 1.02
8:15 am 08:15 Cloudy with Rain 43 6 43 6 100 100 S 6 9 30.09 1019 7 11 0.01 0.25
8:35 am 08:35 Cloudy with Rain 45 7 45 7 100 100 S 6 9 30.09 1019 4 6 0.05 1.27
8:55 am 08:55 Cloudy with Rain 45 7 45 7 100 100 S 9 15 30.09 1019 4 6 0.09 2.29
9:15 am 09:15 Cloudy with Light Rain 45 7 45 7 100 100 S 6 9 30.06 1018 10 16 N/A
9:35 am 09:35 Cloudy with Light Rain 45 7 45 7 100 100 S 8 13 30.06 1018 7 11 0.02 0.51
9:55 am 09:55 Cloudy with Rain 46 8 46 8 100 100 S 8 13 30.06 1018 7 11 0.04 1.02
10:15 am 10:15 Cloudy with Rain 46 8 46 8 100 100 S 7 11 30.03 1017 7 11 0.02 0.51
10:35 am 10:35 Cloudy with Light Rain 46 8 46 8 100 100 S 9 15 30.03 1017 10 16 0.03 0.76
10:55 am 10:55 Cloudy with Light Rain 48 9 48 9 100 100 S 10 17 30.03 1017 10 16 0.05 1.27
11:15 am 11:15 Cloudy with Light Rain 48 9 48 9 100 100 S 10 17 30.00 1016 10 16 N/A
11:35 am 11:35 Cloudy 48 9 48 9 100 100 S 9 15 30.00 1016 10 16 0.01 0.25
11:55 am 11:55 Cloudy 50 10 50 10 100 100 S 8 13 29.94 1014 10 16 0.01 0.25
12:15 pm 12:15 Cloudy 50 10 50 10 100 100 S 9 15 29.94 1014 10 16 N/A
12:35 pm 12:35 Cloudy 50 10 50 10 100 100 SSW 8 13 29.94 1014 10 16 N/A
12:55 pm 12:55 Cloudy 52 11 52 11 100 100 S 6 9 29.91 1013 10 16 N/A
1:15 pm 13:15 Cloudy 52 11 52 11 100 100 S 6 9 29.91 1013 10 16 N/A
1:35 pm 13:35 Cloudy 52 11 52 11 100 100 N N/A 29.91 1013 10 16 N/A
1:55 pm 13:55 Cloudy 52 11 52 11 100 100 N N/A 29.88 1012 10 16 N/A
2:15 pm 14:15 Cloudy 54 12 54 12 100 100 N N/A 29.88 1012 10 16 N/A
2:35 pm 14:35 Cloudy 54 12 54 12 100 100 S 5 7 29.85 1011 10 16 N/A
2:55 pm 14:55 Cloudy 55 13 54 12 94 94 SSW 5 7 29.83 1010 10 16 N/A
3:15 pm 15:15 Cloudy 55 13 54 12 94 94 SSW 7 11 29.83 1010 10 16 N/A
3:35 pm 15:35 Cloudy with Rain 55 13 54 12 94 94 SW 7 11 29.83 1010 10 16 N/A
3:55 pm 15:55 Cloudy with Light Rain 55 13 55 13 100 100 N N/A 29.80 1009 10 16 N/A
4:15 pm 16:15 Cloudy with Light Rain 55 13 55 13 100 100 S 6 9 29.80 1009 10 16 0.01 0.25
4:35 pm 16:35 Mostly Cloudy 55 13 55 13 100 100 SSW 5 7 29.77 1008 10 16 0.01 0.25
4:55 pm 16:55 Cloudy with Light Rain 55 13 55 13 100 100 N N/A 29.77 1008 10 16 0.01 0.25
5:15 pm 17:15 Mostly Cloudy 55 13 55 13 100 100 N 3 6 29.77 1008 10 16 N/A
5:35 pm 17:35 Partly Cloudy 55 13 55 13 100 100 N N/A 29.77 1008 10 16 N/A
5:55 pm 17:55 Mostly Cloudy 55 13 55 13 100 100 N N/A 29.77 1008 10 16 N/A
6:15 pm 18:15 Cloudy with Light Rain 55 13 55 13 100 100 N 3 6 29.80 1009 7 11 N/A
6:35 pm 18:35 Cloudy 54 12 54 12 100 100 N 3 6 29.80 1009 7 11 N/A
6:55 pm 18:55 Cloudy 54 12 54 12 100 100 N N/A 29.80 1009 7 11 N/A
7:15 pm 19:15 Cloudy with Mist and Fog 54 12 54 12 100 100 N N/A 29.80 1009 5 8 N/A
7:35 pm 19:35 Mostly Cloudy with Mist and Fog 54 12 54 12 100 100 S 5 7 29.80 1009 5 8 N/A
7:55 pm 19:55 Mostly Cloudy with Mist and Fog 54 12 54 12 100 100 SW 3 6 29.80 1009 5 8 N/A
8:15 pm 20:15 Cloudy with Mist and Fog 54 12 54 12 100 100 N N/A 29.80 1009 5 8 N/A
8:35 pm 20:35 Partly Cloudy 54 12 54 12 100 100 N N/A 29.80 1009 7 11 N/A
8:55 pm 20:55 Partly Cloudy 54 12 54 12 100 100 N N/A 29.83 1010 7 11 N/A
9:15 pm 21:15 Clear 52 11 52 11 100 100 NW 3 6 29.83 1010 10 16 N/A
9:35 pm 21:35 Clear 54 12 54 12 100 100 W 5 7 29.83 1010 10 16 N/A
9:55 pm 21:55 Clear 55 13 52 11 88 88 WNW 6 9 29.83 1010 10 16 N/A
10:15 pm 22:15 Clear 55 13 50 10 82 82 W 6 9 29.83 1010 10 16 N/A
10:35 pm 22:35 Clear 55 13 50 10 82 82 WNW 10 17 29.85 1011 10 16 N/A
10:55 pm 22:55 Partly Cloudy 55 13 50 10 82 82 WNW 9 15 29.85 1011 10 16 N/A
11:15 pm 23:15 Mostly Cloudy 55 13 48 9 77 77 WNW 8 13 29.85 1011 10 16 N/A
11:35 pm 23:35 Mostly Cloudy 55 13 46 8 72 72 NNE 8 13 29.85 1011 10 16 N/A
11:55 pm 23:55 Mostly Cloudy 54 12 46 8 77 77 NNW 12 19 29.88 1012 10 16 N/A

Powered by AerisWeather